Regional Weather Roundup
Issued by NWS

Home | Current Version | Previous Version | Text Only | Print | Product List | Glossary Off
Versions: 1 2 3 4 5 6 7 8 9 10 11 12 13 14 15 16 17 18 19 20 21 22 23 24 25 26 27 28 29 30 31 32 33 34 35 36 37 38 39 40 41 42 43 44 45 46 47 48 49 50

000
ASUS43 KFSD 262210
RWRSD

WEATHER ROUNDUP FOR SOUTH DAKOTA
NATIONAL WEATHER SERVICE SIOUX FALLS SD
500 PM CDT FRI AUG 26 2016

NOTE: "FAIR" INDICATES FEW OR NO CLOUDS BELOW 12,000 FEET WITH NO
SIGNIFICANT WEATHER AND/OR OBSTRUCTIONS TO VISIBILITY.


SDZ001>005-009-010-012>017-262300-
NORTHWEST AND NORTH CENTRAL SOUTH DAKOTA

CITY           SKY/WX    TMP DP  RH WIND       PRES   REMARKS
BUFFALO          N/A     65  51  60 E8        29.95F
FAITH            N/A     62  56  80 S13       30.04F
MOBRIDGE       LGT RAIN  59  54  83 SE12      30.05F
$$

SDZ012>016-024>037-041>051-057-063-072>074-262300-
SOUTHWEST AND SOUTH CENTRAL SOUTH DAKOTA

CITY           SKY/WX    TMP DP  RH WIND       PRES   REMARKS
RAPID CTY ARPT SUNNY     68  55  63 S13G21    30.01F
PIERRE         CLOUDY    62  55  77 SE9       30.06F
CUSTER         MOSUNNY   63  49  60 SE8       30.08F
ELLSWORTH AFB  SUNNY     68  55  63 S12       30.00F
PHILIP         CLOUDY    68  58  70 SE13      30.04F
PINE RIDGE     SUNNY     70  58  65 S9        30.04F
WINNER         LGT RAIN  65  58  78 CALM      30.09F
$$

SDZ004>011-016>023-039-040-262300-
NORTHEAST SOUTH DAKOTA

CITY           SKY/WX    TMP DP  RH WIND       PRES   REMARKS
ABERDEEN       LGT RAIN  63  56  78 CALM      30.11F
WATERTOWN      CLOUDY    70  51  51 S5        30.12F
BROOKINGS      MOSUNNY   71  52  50 SW5         N/A
SISSETON         N/A     67  60  78 S5        30.10S
$$

SDZ017-020-022-023-036>040-048>070-262300-
SOUTHEAST SOUTH DAKOTA

CITY           SKY/WX    TMP DP  RH WIND       PRES   REMARKS
SIOUX FALLS    CLOUDY    73  59  61 E9        30.11F
HURON          CLOUDY    67  53  61 NE7       30.11F
CHAMBERLAIN    DRIZZLE   69  56  63 SE8       30.07F
MITCHELL       MOSUNNY   72  57  59 N7        30.10F
YANKTON        CLOUDY    72  55  56 E9        30.08F
$$

ABBREVIATIONS USED IN REMARKS
   TC - TEMPERATURE IN CELSIUS
  WCI - WIND CHILL INDEX
   HX - HEAT INDEX
  VSB - VISIBILITY





USA.gov is the U.S. government's official web portal to all federal, state and local government web resources and services.